Location: Arbon
(43.0005°N, 0.7472°E)
Time: 02:29:01
(UTC+00:00)

SL-16 R/B - Pass Details

Date: 07 August 2020
Orbit: 841 x 849 km, 71.0° (Epoch: 27 September)

Event Time Altitude Azimuth Distance (km) Brightness Sun altitude
Rises 01:59:49 0° 338° (NNW) 3,422 5.9 -24.9°
Reaches altitude 10° 02:02:19 10° 342° (NNW) 2,482 5.1 -24.6°
Maximum altitude 02:07:58 61° 62° (ENE) 958 2.6 -24.1°
Enters shadow 02:13:12 12° 142° (SE) 2,332 4.3 -23.6°
